Location: Dehesa de la Cepeda
(40.6574°N, 4.3013°W)
Time: 02:53:48
(UTC+00:00)

Courier 1B - Pass Details

Date: 03 August 2021
Orbit: 963 x 1209 km, 28.3° (Epoch: 17 September)

Event Time Altitude Azimuth Distance (km) Brightness Sun altitude
Rises 16:50:40 0° 210° (SSW) 4,049 11.1 28.6°
Reaches altitude 10° 16:54:45 10° 191° (S) 3,116 10.4 27.8°
Maximum altitude 16:59:11 16° 155° (SSE) 2,687 9.7 27.0°
Drops below altitude 10° 17:03:38 10° 120° (ESE) 3,140 9.8 26.2°
Sets 17:07:45 0° 101° (E) 4,097 10.2 25.4°
